Location: Albany
(35.0000°S, 118.0000°E)
Time: 12:05:47

JAS-1B - Pass Details

Date: 20 February 2018
Orbit: 911 x 1744 km, 99.1° (Epoch: 23 March)

Event Time Altitude Azimuth Distance (km) Brightness Sun altitude
Rises 13:01:42 0° 186° (S) 4,460 11.0 -38.5°
Reaches altitude 10° 13:05:45 10° 206° (SSW) 3,631 10.2 -38.1°
Maximum altitude 13:10:20 16° 238° (WSW) 3,331 9.7 -37.5°
Enters shadow 13:10:54 16° 243° (WSW) 3,353 9.7 -37.5°
